Find Starlink 3609

NORAD ID: 51808 Int'l Des: 2022-017 Owner: SPXS Country: US Constellation: starlink operational
LEOCIRCULAR

Aktuelle Ansicht

3D-Globus wird geladen...

Über Starlink 3609

Beschreibung wird geladen...

Nächste Überflüge

Passes for default location (London). Set your location on the main map for personalized predictions.

Höhenverlauf

Loading altitude history...

Zweizeiliger Elementsatz

1 51808U 22017AS 26149.90109564 .00000096 00000-0 24119-4 0 9996
2 51808 53.2000 334.5405 0001210 94.0689 266.0442 15.08838613236220
Epoch: 29. Mai 2026 • Age: 14 hours

Aktueller Status

Höhe 551.0 km
Geschwindigkeit 7.59 km/s
Subsatellitenpunkt -33.84°S, 122.13°W
Startdatum 25. Feb. 2022
Alter 4.2 years
Typ internet

Technische Details

Klassifizierung Payload
Masse 297.00 kg
Trockenmasse 275.00 kg
Gesamtmasse 297.00 kg
Länge 0.20 m
Durchmesser 2.80 m
Spannweite 9.00 m
Form Box + pan
Hersteller SPXS
Bus-Typ Starlink
Phasenstatus In Orbit
Besitzer/Staat SPXS/US

Most Searched